Weather History for KLWB - November, 2013

Change the Weather History Date:

Thursday, November 14, 2013

  Actual Average Record
Temperature  
Mean Temperature 32 °F 42 °F  
Max Temperature 50 °F 54 °F 77 °F (1993)
Min Temperature 15 °F 29 °F 9 °F (1986)
Degree Days  
Heating Degree Days 33    
Month to date heating degree days  
Since 1 July heating degree days  
Cooling Degree Days 0    
Month to date cooling degree days  
Year to date cooling degree days  
Moisture  
Dew Point 14 °F    
Average Humidity 58    
Maximum Humidity 89    
Minimum Humidity 20    
Precipitation  
Precipitation 0.00 in 0.10 in 0.00 in (2015)
Month to date precipitation 1.31  
Year to date precipitation 35.26  
Snow  
Snow 0.00 in - - ()
Month to date snowfall  
Since 1 July snowfall  
Since 1 September snowfall  
Snow Depth -    
Sea Level Pressure  
Sea Level Pressure 30.34 in    
Wind  
Wind Speed 2 mph (SW)    
Max Wind Speed 10 mph    
Max Gust Speed -    
Visibility 10 miles    
Events      
T = Trace of Precipitation, MM = Missing Value Source: NWS Daily Summary

Daily Weather History Graph

Daily Weather History Graph

Search for Another Location

Airport or City:

Trip Planner

Search our weather history database for the weather conditions in past years. The results will help you decide how hot, cold, wet, or windy it might be!

Date:

Astronomy

Nov. 14, 2013 Rise Set
Actual Time 7:01 AM EST 5:10 PM EST
Civil Twilight 6:33 AM EST 5:38 PM EST
Nautical Twilight 6:01 AM EST 6:10 PM EST
Astronomical Twilight 5:30 AM EST 6:41 PM EST
Moon 3:28 PM EST (11/14) 3:57 AM EST (11/14)
Length of Visible Light 11h 05m
Length of Day
10h 09m
Waxing Gibbous, 91% of the Moon is Illuminated
Nov 14
Waxing Gibbous
Nov 17
Full
Nov 25
Last Quarter
Dec 2
New
Dec 9
First Quarter

Hourly Weather History & Observations

Time (EST) Temp. Windchill Dew Point Humidity Pressure Visibility Wind Dir Wind Speed Gust Speed Precip Events Conditions
12:15 AM 20.8 °F 16.0 °F 15.6 °F 80% 30.41 in 10.0 mi South 3.5 mph - N/A   Clear
12:35 AM 20.7 °F - 15.4 °F 80% 30.41 in 10.0 mi Calm Calm - N/A   Clear
12:55 AM 21.9 °F - 15.6 °F 77% 30.40 in 10.0 mi Calm Calm - N/A   Clear
1:15 AM 22.8 °F - 15.4 °F 73% 30.40 in 10.0 mi Calm Calm - N/A   Clear
1:35 AM 23.0 °F - 14.9 °F 71% 30.39 in 10.0 mi Calm Calm - N/A   Clear
1:55 AM 19.0 °F - 14.5 °F 83% 30.38 in 10.0 mi Calm Calm - N/A   Clear
2:15 AM 19.4 °F - 14.9 °F 83% 30.38 in 10.0 mi Calm Calm - N/A   Clear
2:35 AM 17.8 °F - 14.0 °F 85% 30.38 in 10.0 mi Calm Calm - N/A   Clear
2:55 AM 18.3 °F - 14.0 °F 83% 30.38 in 10.0 mi Calm Calm - N/A   Clear
3:15 AM 18.5 °F - 14.5 °F 85% 30.38 in 10.0 mi Calm Calm - N/A   Clear
3:35 AM 17.6 °F - 13.5 °F 84% 30.38 in 10.0 mi Calm Calm - N/A   Clear
3:55 AM 17.4 °F - 14.2 °F 87% 30.37 in 10.0 mi Calm Calm - N/A   Clear
4:15 AM 16.9 °F - 13.3 °F 86% 30.37 in 10.0 mi Calm Calm - N/A   Clear
4:35 AM 16.9 °F - 13.5 °F 86% 30.37 in 10.0 mi Calm Calm - N/A   Clear
4:55 AM 16.0 °F - 12.9 °F 88% 30.38 in 10.0 mi Calm Calm - N/A   Clear
5:15 AM 16.7 °F - 13.5 °F 87% 30.38 in 10.0 mi Calm Calm - N/A   Clear
5:35 AM 16.7 °F - 13.6 °F 88% 30.37 in 10.0 mi Calm Calm - N/A   Clear
5:55 AM 16.5 °F - 13.6 °F 88% 30.37 in 10.0 mi Calm Calm - N/A   Clear
6:15 AM 16.5 °F - 13.5 °F 88% 30.38 in 10.0 mi Calm Calm - N/A   Clear
6:35 AM 15.8 °F - 13.1 °F 89% 30.38 in 10.0 mi Calm Calm - N/A   Clear
6:55 AM 15.8 °F - 12.9 °F 88% 30.38 in 10.0 mi Calm Calm - N/A   Clear
7:15 AM 15.3 °F - 12.2 °F 88% 30.39 in 10.0 mi Calm Calm - N/A   Clear
7:35 AM 16.5 °F - 12.9 °F 86% 30.40 in 10.0 mi Calm Calm - N/A   Clear
7:55 AM 17.4 °F - 13.6 °F 85% 30.40 in 10.0 mi Calm Calm - N/A   Clear
8:15 AM 19.8 °F - 15.6 °F 84% 30.40 in 10.0 mi Calm Calm - N/A   Clear
8:35 AM 22.1 °F - 16.7 °F 80% 30.40 in 10.0 mi Calm Calm - N/A   Clear
8:55 AM 24.4 °F - 16.9 °F 73% 30.40 in 10.0 mi Calm Calm - N/A   Clear
9:15 AM 26.8 °F 20.2 °F 18.5 °F 71% 30.40 in 10.0 mi SSW 5.8 mph - N/A   Clear
9:35 AM 29.7 °F 24.7 °F 19.6 °F 66% 30.40 in 10.0 mi SSW 4.6 mph - N/A   Clear
9:55 AM 32.4 °F 26.9 °F 19.4 °F 59% 30.40 in 10.0 mi South 5.8 mph - N/A   Clear
10:15 AM 34.7 °F 28.8 °F 17.2 °F 49% 30.40 in 10.0 mi SSW 6.9 mph - N/A   Clear
10:35 AM 36.5 °F 31.0 °F 17.1 °F 45% 30.40 in 10.0 mi SW 6.9 mph - N/A   Clear
10:55 AM 38.5 °F 32.1 °F 12.2 °F 34% 30.39 in 10.0 mi SW 9.2 mph - N/A   Clear
11:15 AM 39.9 °F 33.4 °F 11.8 °F 32% 30.38 in 10.0 mi WSW 10.4 mph - N/A   Clear
11:55 AM 42.1 °F 37.7 °F 12.7 °F 30% 30.36 in 10.0 mi SW 6.9 mph - N/A   Clear
12:15 PM 43.5 °F 38.3 °F 13.3 °F 29% 30.35 in 10.0 mi SW 9.2 mph - N/A   Clear
12:35 PM 45.0 °F 41.2 °F 12.6 °F 27% 30.34 in 10.0 mi SW 6.9 mph - N/A   Clear
12:55 PM 45.7 °F 42.0 °F 10.9 °F 24% 30.33 in 10.0 mi WSW 6.9 mph - N/A   Clear
1:15 PM 46.6 °F - 11.1 °F 24% 30.32 in 10.0 mi WSW 9.2 mph - N/A   Clear
1:35 PM 47.7 °F - 11.3 °F 23% 30.31 in 10.0 mi WSW 5.8 mph - N/A   Clear
1:55 PM 48.7 °F - 11.1 °F 22% 30.31 in 10.0 mi WSW 6.9 mph - N/A   Clear
2:15 PM 49.6 °F - 10.8 °F 21% 30.30 in 10.0 mi SW 8.1 mph - N/A   Clear
2:35 PM 49.8 °F - 9.5 °F 20% 30.30 in 10.0 mi WSW 10.4 mph - N/A   Clear
2:55 PM 49.6 °F - 11.3 °F 21% 30.30 in 10.0 mi SSW 8.1 mph - N/A   Clear
3:15 PM 49.8 °F - 12.0 °F 22% 30.30 in 10.0 mi SSW 8.1 mph - N/A   Clear
3:35 PM 49.6 °F - 11.5 °F 22% 30.30 in 10.0 mi SW 6.9 mph - N/A   Clear
3:55 PM 49.5 °F - 9.9 °F 20% 30.29 in 10.0 mi SW 4.6 mph - N/A   Clear
4:15 PM 49.3 °F - 10.2 °F 21% 30.29 in 10.0 mi SW 4.6 mph - N/A   Clear
4:35 PM 48.0 °F - 11.8 °F 23% 30.29 in 10.0 mi Calm Calm - N/A   Clear
4:55 PM 46.9 °F - 11.5 °F 24% 30.28 in 10.0 mi SSW 3.5 mph - N/A   Clear
5:15 PM 45.5 °F - 11.7 °F 25% 30.28 in 10.0 mi Calm Calm - N/A   Clear
5:35 PM 41.7 °F - 12.2 °F 30% 30.28 in 10.0 mi Calm Calm - N/A   Clear
5:55 PM 40.1 °F - 12.7 °F 33% 30.28 in 10.0 mi Calm Calm - N/A   Clear
6:15 PM 37.4 °F - 14.2 °F 39% 30.28 in 10.0 mi Calm Calm - N/A   Clear
6:35 PM 37.6 °F - 14.9 °F 40% 30.27 in 10.0 mi Calm Calm - N/A   Clear
6:55 PM 35.8 °F - 15.6 °F 44% 30.28 in 10.0 mi Calm Calm - N/A   Clear
7:15 PM 35.1 °F - 16.9 °F 48% 30.27 in 10.0 mi Calm Calm - N/A   Clear
7:35 PM 32.2 °F - 18.3 °F 57% 30.27 in 10.0 mi Calm Calm - N/A   Clear
7:55 PM 30.9 °F - 18.5 °F 60% 30.27 in 10.0 mi Calm Calm - N/A   Clear
8:15 PM 31.1 °F - 17.4 °F 57% 30.27 in 10.0 mi Calm Calm - N/A   Clear
8:35 PM 32.0 °F - 18.0 °F 56% 30.27 in 10.0 mi Calm Calm - N/A   Clear
8:55 PM 30.6 °F - 16.9 °F 57% 30.27 in 10.0 mi Calm Calm - N/A   Clear
9:15 PM 30.0 °F - 17.6 °F 60% 30.27 in 10.0 mi Calm Calm - N/A   Clear
9:35 PM 29.5 °F - 17.1 °F 60% 30.28 in 10.0 mi Calm Calm - N/A   Clear
9:55 PM 28.8 °F - 16.3 °F 60% 30.28 in 10.0 mi Calm Calm - N/A   Clear
10:15 PM 28.0 °F - 16.2 °F 61% 30.27 in 10.0 mi Calm Calm - N/A   Clear
10:35 PM 28.0 °F - 17.2 °F 64% 30.27 in 10.0 mi Calm Calm - N/A   Clear
10:55 PM 25.3 °F - 16.7 °F 70% 30.28 in 10.0 mi Calm Calm - N/A   Clear
11:15 PM 25.2 °F - 16.9 °F 71% 30.27 in 10.0 mi Calm Calm - N/A   Clear
11:35 PM 24.6 °F - 17.4 °F 74% 30.27 in 10.0 mi Calm Calm - N/A   Clear
11:55 PM 23.9 °F 19.5 °F 16.7 °F 74% 30.26 in 10.0 mi NNE 3.5 mph - N/A   Clear